OSCAR 3

Satellite information

Favourite Embed

Satellite Type and Status

PAYLOADIN ORBIT

Key statistics

Satellite OSCAR 3 at a glance.

Uptime

22194

Days in orbit

Revolutions

≈ 14.1

Per day

Orbit

LEO

Low Earth Orbit

Inclination

70.1

Latest

Satellite identification and parameters

Extended collection of information and parameters for OSCAR 3.

Object identification

Identified? True

Debris? False

Object name: OSCAR 3

International designator: 1965-016F

Object number (NORAD): 1293

Object ID (CCSDS): 1293

Country: UNITED STATES OF AMERICA (US)

Current information (Y/N): Y

RCS size: MEDIUM

Orbital parameters

Period: 102.251 minutes

Inclination: 70.074 deg

SMA: 7243.319 km

Apoapsis: 876.463 km

Periapsis: 853.906 km

RAAN: 85.638 deg

Eccentricy: 0.00155712

Argument of periapsis: 28.9035 deg

Mean anomaly: 331.2937 deg

Mean motion: 14.08303686 rev/day

Mean motion (dot): 0.00000728 rev/day2

B* drag term: 0.00045659525 1/REarth

Two-line elements (TLE)

Creation date: Dec. 12, 2025, 10:14 a.m.

Reference frame: TEME

Reference center: EARTH

Epoch: Dec. 12, 2025, 7:19 a.m. UTC

TLE line 0: 0 OSCAR 3

TLE line 1: 1 01293U 65016F 25346.30494595 .00000728 00000-0 45660-3 0 9993

TLE line 2: 2 01293 70.0740 85.6380 0015571 28.9035 331.2937 14.08303686105778

Live tracking on map

Real-time ground track for satellite OSCAR 3.

In-orbit conjunctions

A list of the most updated potential collisions computed for object OSCAR 3.

Target Orbit TCA Probability of collision Miss distance Type
FENGYUN 1C DEB SSO 2025-04-03 09:22:28 0.0001663559 753.0 (m) DEBRIS
CZ-6A DEB SSO 2024-12-27 05:20:39 0.0001528466 121.0 (m) DEBRIS
COSMOS 2251 DEB LEO 2024-06-01 08:55:15 0.0002454116 758.0 (m) DEBRIS

Associated space launch

Poppy was the follow-on ELINT system, which succeeded the Grab ELINT satellite system.

OSCAR 3 was lifted into orbit during the mission ‘Thor SLV-2 Agena D | Poppy 6A,B,C,D’, on board a Thor SLV-2 Agena D space rocket.

The launch took place on March 9, 1965, 6:29 p.m. from Space Launch Complex 2W.

For more information about the launch, click the button.

Launch to space Thor SLV-2 Agena D | Poppy 6A,B,C,D
Thor SLV-2 Agena D | Poppy 6A,B,C,D

Agency: N/A

Status: Launch Successful

Launch date: March 9, 1965, 6:29 p.m. UTC

Rocket: Thor SLV-2 Agena D

Launch pad: Space Launch Complex 2W

Location: Vandenberg SFB, CA, USA

...

Latest news about this satellite

There are no fresh news available about this satellite. Check back as we update our databases every day.


Newsletter sign-up

Weekly statistics, charts and insights to help you stay on top of the space industry.